Location: Rounton
(54.4000°N, 1.3500°W)
Time: 07:49:22
(UTC+01:00)

A-11 Canister half - Pass Details

Date: 03 July 2022
Orbit: 1525 x 1683 km, 47.3° (Epoch: 16 August)

Event Time Altitude Azimuth Distance (km) Brightness Sun altitude
Rises 23:45:43 0° 284° (WNW) 4,708 12.1 -10.6°
Reaches altitude 10° 23:49:32 10° 271° (W) 3,709 11.3 -10.8°
Maximum altitude 23:56:21 24° 223° (SW) 2,776 10.1 -11.1°
Enters shadow 00:02:20 12° 179° (S) 3,505 10.3 -11.4°
